« Back
NWS Peachtree City, Ga » Text Product » GA Regional Weather Roundup


Printer-friendly Version
Current Version              Previous Versions:   1  2  3  4  5  6  7  8  9  

Regional Weather Roundup

212
ASUS42 KFFC 221003
RWRGA
WEATHER ROUNDUP FOR GEORGIA
NATIONAL WEATHER SERVICE PEACHTREE CITY GA
600 AM EDT FRI MAY 22 2015

NOTE: "FAIR" INDICATES FEW OR NO CLOUDS BELOW 12,000 FEET WITH NO
SIGNIFICANT WEATHER AND/OR OBSTRUCTIONS TO VISIBILITY.

* = USE WITH CAUTION. THE STATIONS MARKED WITH AN ASTERISK MAY NOT
REPORT WEATHER SUCH AS PRECIPITATION, FOG, OR THUNDER AND ARE NOT
QUALITY CONTROLLED BY NWS.

THE REMARK "TC" DENOTES TEMPERATURE READING IN DEGREES CELSIUS.

GAZ001>058-221100-
NORTH GEORGIA

CITY           SKY/WX    TMP DP  RH WIND       PRES   REMARKS
ATLANTA        PTCLDY    52  46  80 NW9       30.10R
ATHENS         PTCLDY    53  47  79 NW6       30.09R
CHAMBLEE       CLEAR     51  46  83 N5        30.11R
PEACHTREE CITY PTCLDY    53  46  77 NW9       30.11S
ROME           CLEAR     51  45  79 N9        30.14R
WEST ATLANTA   CLEAR     51  46  83 NW5       30.12R
GAINESVILLE    CLEAR     53  45  74 NW5       30.11R
CARTERSVILLE   CLEAR     48  45  89 CALM      30.14R


CITY           SKY/WX    TMP DP  RH WIND       PRES   REMARKS
DALTON*        CLEAR     50  46  87 N9G17     30.15R
MARIETTA       CLEAR     51  47  87 NW8       30.11R
BLAIRSVILLE*     N/A     46  37  71 CALM      30.14R
$$

GAZ059>098-102>109-221100-
CENTRAL GEORGIA

CITY           SKY/WX    TMP DP  RH WIND       PRES   REMARKS
AUGUSTA-BUSH   MOCLDY    61  51  70 NW7       30.05R
AUGUSTA-DANIEL MOCLDY    62  50  64 NW6       30.06R
COLUMBUS       MOCLDY    57  46  66 N6        30.10R
MACON          MOCLDY    56  49  77 NW3       30.08R
ROBINS AFB     MOCLDY    56  50  79 NW8       30.07R


CITY           SKY/WX    TMP DP  RH WIND       PRES   REMARKS
LAGRANGE*      MOCLDY    56  52  86 N6        30.12R
SYLVANIA*      PTCLDY    62  56  81 NW7       30.06R
MILLEDGEVILLE* MOCLDY    57  52  82 CALM      30.08R
$$

GAZ099>101-110>166-221100-
SOUTH GEORGIA

CITY           SKY/WX    TMP DP  RH WIND       PRES   REMARKS
SAVANNAH       PTCLDY    66  56  70 NW7       30.03R
VALDOSTA       NOT AVBL
ALMA           MOCLDY    64  55  72 N5        30.05R
FT STEWART     PTCLDY    65  56  70 N8        30.02R
ALBANY         PTCLDY    62  51  67 N9        30.10R
HUNTER AFB     PTCLDY    67  58  71 NW8       30.00R
MOODY AFB      CLEAR     65  59  80 N9        30.04R
BRUNSWICK      CLEAR     66  61  82 CALM      30.03R


CITY           SKY/WX    TMP DP  RH WIND       PRES   REMARKS
BAINBRIDGE*    PTCLDY    66  59  77 N12       30.09R
MOULTRIE*      PTCLDY    64  55  72 N6        30.07R
VIDALIA*       PTCLDY    61  52  72 N6        30.06R
WAYCROSS*      MOCLDY    66  61  84 N8        30.05R
DOUGLAS*       PTCLDY    64  54  68 N8        30.07R
$$



USA.gov is the U.S. government's official web portal to all federal, state and local government web resources and services.